Tracking 30995 objects as of 7-Jul-2025
HD Live streaming from Space Station
objects crossing your sky now

FENGYUN 1C DEB

Track FENGYUN 1C DEB now!
10-day predictions


NORAD ID: 32357
Int'l Code: 1999-025CZA
Perigee: 652.3 km
Apogee: 1,384.0 km
Inclination: 98.9 °
Period: 105.4 minutes
Semi major axis: 7389 km
RCS: 0.0112 m2 (small)
Launch date: May 10, 1999
Source: People's Republic of China (PRC)
Launch site: Taiyaun Space Center, China (TSC)

Note: This is SATELLITE DEBRIS
Your satellite tracking list
METEOR 2-8 DEB
Track 1 satellite(s)




NASA's NSSDC Master Catalog

Two Line Element Set (TLE):
1 32357U 99025CZA 25185.38540691  .00002454  00000-0  12781-2 0  9998
2 32357  98.8716 237.2672 0495079 253.3865 168.7097 13.66815746645826
Source of the keplerian elements: AFSPC